Regional Weather Roundup
Issued by NWS

Home | Current Version | Previous Version | Text Only | Print | Product List | Glossary Off
Versions: 1 2 3 4 5 6 7 8 9 10 11 12 13 14 15 16 17 18 19 20 21 22 23 24 25 26 27 28 29 30 31 32 33 34 35 36 37 38 39 40 41 42 43 44 45 46 47 48 49 50

000
ASUS43 KLOT 260112
RWRIL

ILLINOIS REGIONAL WEATHER ROUNDUP
NATIONAL WEATHER SERVICE CHICAGO/ROMEOVILLE IL
800 PM CDT SAT APR 25 2015

NOTE: "FAIR" INDICATES FEW OR NO CLOUDS BELOW 12,000 FEET WITH NO
SIGNIFICANT WEATHER AND/OR OBSTRUCTIONS TO VISIBILITY.

* THESE STATIONS ARE NOT UNDER NWS QUALITY CONTROL. THEY ALSO MAY NOT
  REPORT WEATHER SUCH AS PRECIPITATION OR FOG.

ILZ001-002-007-009-015-016-024-260200-
NORTHWEST ILLINOIS

CITY           SKY/WX    TMP DP  RH WIND       PRES   REMARKS
MOLINE         CLOUDY    48  39  71 NE16      29.80R
STERLING*      CLOUDY    46  37  71 NE14      29.82R
SAVANNA*       CLOUDY    47  36  65 NE13      29.84R
$$

ILZ003-004-008-010-011-017-018-260200-
NORTH CENTRAL ILLINOIS

CITY           SKY/WX    TMP DP  RH WIND       PRES   REMARKS
ROCKFORD       CLOUDY    45  32  60 NE13      29.87R
FREEPORT*      CLOUDY    44  34  68 NE12      29.86R
ROCHELLE*      CLOUDY    43  37  79 NE12G18   29.83R
DE KALB*       CLOUDY    41  35  79 NE15      29.83R
PERU*          CLOUDY    47  40  77 NE17      29.79R
$$

ILZ005-006-012>014-019>023-260200-
NORTHEAST ILLINOIS

CITY           SKY/WX    TMP DP  RH WIND       PRES   REMARKS
CHICAGO-OHARE  CLOUDY    42  32  67 N14       29.82R
CHICAGO-MIDWAY CLOUDY    44  35  70 NE14      29.82R
AURORA         CLOUDY    45  37  73 NE12      29.82R
LANSING*       CLOUDY    44  39  84 N7        29.81R
JOLIET*        CLOUDY    47  42  83 NE13G18   29.80R
WAUKEGAN       CLOUDY    40  28  62 N8        29.84R
DUPAGE AIRPORT CLOUDY    43  34  70 NE13      29.82R
KANKAKEE*      DRIZZLE   46  43  90 NE15G21   29.77R
WHEELING       CLOUDY    42  30  62 N10       29.84R
MORRIS*        CLOUDY    46  40  81 NE6       29.77R
ROMEOVILLE*    CLOUDY    45  39  81 NE16      29.80R
NORTHERLY ISL    N/A     41  35  79 MISG        N/A
$$

LMZ740>746-260200-
SOUTHERN LAKE MICHIGAN

STATION/POSITION SKY/WX   TEMP    WIND        PRES    VSBY  WAVE
                          AIR SEA DIR/SP/G                  HT/PER
                          (F)     (DEG/KT/KT) (MB)    (MI)  (FT/S)
HARRISON CRIB              40      10/ 17/ 19   N/A
BURNHAM HARBOR             41     340/ 12/ 16   N/A
CALUMET HARBOR             42     350/  9/ 14   N/A
BURNS HARBOR               44      30/ 11/ 12 1009.5R
MICHIGAN CITY              47      40/  6/  8   N/A
MICHIGAN CITY 6N           40 45   20/ 12/ 14   N/A           1/ 3
$$

ILZ025>027-034>036-040-047-049-050-058-095>099-260200-
WEST-CENTRAL ILLINOIS

CITY           SKY/WX    TMP DP  RH WIND       PRES   REMARKS
QUINCY         CLOUDY    48  45  89 NE21      29.71R
GALESBURG*     CLOUDY    46  43  91 NE14      29.77R FOG
MACOMB*        CLOUDY    46  45  93 NE17G23   29.77R FOG
JACKSONVILLE*  CLOUDY    50  47  91 NE13G21   29.69R
PITTSFIELD*    CLOUDY    49  47  90 NE16G28   29.69R
$$

ILZ028>032-037-038-041>044-048-051>054-059>061-260200-
CENTRAL ILLINOIS

CITY           SKY/WX    TMP DP  RH WIND       PRES   REMARKS
PONTIAC        CLOUDY    46  45  93 NE20      29.76R
BLOOMINGTON    CLOUDY    45  44  96 NE21      29.74R
DECATUR        CLOUDY    47  44  90 NE21      29.68R
PEORIA         CLOUDY    49  42  77 NE16G24   29.75R
LACON*         CLOUDY    46  40  81 NE14G22   29.77R
LINCOLN*       CLOUDY    48  45  87 NE15G22   29.71R
SPRINGFIELD    CLOUDY    49  45  86 NE17G29   29.69R FOG
TAYLORVILLE    CLOUDY    46  45  93 N24       29.67R
$$

ILZ033-039-045-046-055>057-062-063-260200-
EAST-CENTRAL ILLINOIS

CITY           SKY/WX    TMP DP  RH WIND       PRES   REMARKS
CHAMPAIGN      CLOUDY    46  43  89 NE21G31   29.68R FOG
DANVILLE*      CLOUDY    44  43  95 NE16G24   29.68R FOG
RANTOUL*       CLOUDY    46  45  94 NE20G28   29.71R FOG
MATTOON        CLOUDY    48  46  93 NE18      29.63R
PARIS*         CLOUDY    47  45  93 NE15      29.65R
$$

ILZ079-100>102-260200-
SOUTHWEST ILLINOIS

CITY           SKY/WX    TMP DP  RH WIND       PRES   REMARKS
ALTON          CLOUDY    54  52  94 N12       29.63R
BELLEVILLE     CLOUDY    56  56 100 N7        29.60R
CAHOKIA*       CLOUDY    58  55  90 N10       29.60R
SPARTA*        CLOUDY    58  57  97 N3        29.59R
$$

ILZ064>066-069>071-074>076-080>082-084>086-088>090-092>094-260200-
SOUTH-CENTRAL ILLINOIS

CITY           SKY/WX    TMP DP  RH WIND       PRES   REMARKS
CARBONDALE     CLOUDY    62  59  90 N7        29.56R
CAIRO*         PTCLDY    65  59  80 N8        29.55R
EFFINGHAM*     CLOUDY    51  49  92 N6        29.63R
MARION         RAIN      63  59  88 NW5       29.57R
MT. VERNON     CLOUDY    55  52  88 N5        29.59R
CENTRALIA*     CLOUDY    54  52  92 N3        29.59R
SALEM*         CLOUDY    56  53  91 N9        29.59R
METROPOLIS*    PTCLDY    62  62 100 N5        29.54R
$$

ILZ067-068-072-073-078-083-087-091-260200-
SOUTHEAST ILLINOIS

CITY           SKY/WX    TMP DP  RH WIND       PRES   REMARKS
LAWRENCEVILLE  LGT RAIN  52  51  97 NE10      29.58R
FLORA*         CLOUDY    53  52  96 N7          N/A
FAIRFIELD*     CLOUDY    55  54  95 N6        29.56R
HARRISBURG*    DRIZZLE   61  61 100 N3        29.56R
ROBINSON*      CLOUDY    49  48  96 NE13      29.60R
CARMI*         CLOUDY    57  53  85 NW13      29.56R
$$

ABBREVIATIONS USED IN REMARKS
   TC - TEMPERATURE IN CELSIUS
  WCI - WIND CHILL INDEX
   HX - HEAT INDEX
  VSB - VISIBILITY
$$




USA.gov is the U.S. government's official web portal to all federal, state and local government web resources and services.